Tracking 19212 objects as of 17-Jul-2018
HD Live streaming from Space Station
objects crossing your sky now

FENGYUN 1C DEB

Track FENGYUN 1C DEB now!
10-day predictions


NORAD ID: 31481
Int'l Code: 1999-025BVV
Perigee: 636.8 km
Apogee: 713.3 km
Inclination: 99.2 °
Period: 98.1 minutes
Semi major axis: 7046 km
RCS: 0.0112 m2 (small)
Launch date: May 10, 1999
Source: People's Republic of China (PRC)
Launch site: Taiyaun Space Center, China (TSC)

Note: This is SATELLITE DEBRIS
aabbcc
Your satellite tracking list
Your tracking list is empty




NASA's NSSDC Master Catalog

Two Line Element Set (TLE):
1 31481U 99025BVV 18197.65535802  .00002018  00000-0  35643-3 0  9997
2 31481  99.2392 248.2511 0054275 228.1698 131.4862 14.67863807593726
Source of the keplerian elements: AFSPC